Theta_e
322 323 325 326 324 317 313 317 319 321 325 322 322 328 328 328 333 330 323 322 323 321 318 316 316 315 315 315 314 314 313 313 312 312 311 311 311 310 310 310 309 309 309 309 309 309 308 308 308 308 307 307 307 307 307 307 306 306 306 306 306 306 306 306 306 305 305 304 304 304 304 304 303 303 304 304 304 304 305 305 306 306 306 307 307 308 310
325 326 329 329 327 323 323 324 324 328 333 331 328 328 327 329 330 326 322 322 321 319 317 316 316 315 314 314 314 313 313 312 312 311 311 310 310 310 309 309 308 308 308 308 308 308 308 308 308 307 307 307 307 307 307 306 306 306 306 306 306 306 305 305 305 305 305 304 304 304 303 303 303 303 303 303 303 303 303 303 304 305 305 306 307 307 307
327 327 328 326 324 323 323 324 325 327 328 327 326 325 323 325 324 322 321 321 319 318 316 315 315 315 314 314 313 313 312 312 311 311 310 309 309 309 308 308 307 307 307 307 307 308 307 307 307 307 307 306 306 306 306 305 305 305 305 305 305 305 305 304 305 305 304 304 303 303 303 303 303 303 303 303 302 302 302 302 302 303 303 304 304 305 306
327 326 327 326 326 325 323 323 325 326 327 325 324 324 323 322 321 320 320 320 318 316 315 315 315 314 314 313 313 312 312 311 311 310 309 309 308 308 307 307 306 306 306 306 307 307 307 307 307 306 306 306 306 305 305 305 305 304 304 304 304 304 303 304 304 304 303 303 303 303 303 303 302 302 302 303 302 302 302 301 301 301 301 301 301 302 304
327 326 327 328 331 333 329 324 322 323 324 323 322 322 322 320 319 319 320 319 316 314 314 314 314 313 313 313 312 312 312 311 310 309 309 308 308 307 307 306 306 306 306 306 306 306 306 306 306 306 306 305 305 305 304 304 304 304 304 303 303 303 302 303 303 303 302 302 302 302 302 302 302 302 302 303 303 302 301 301 300 300 300 300 299 300 301
328 327 326 328 332 332 326 320 319 320 320 319 318 318 318 319 319 318 317 316 314 313 314 314 313 313 312 312 312 311 311 310 309 308 308 308 307 307 306 305 305 306 306 306 306 306 306 306 306 305 305 305 305 304 304 304 303 303 303 303 303 302 302 302 302 302 302 302 301 301 301 301 300 300 301 302 302 302 301 300 300 299 299 299 299 299 299
326 325 325 328 328 324 320 318 317 317 316 315 314 314 313 315 316 315 314 314 313 313 313 313 312 312 311 311 311 311 310 309 308 308 308 307 307 306 305 305 305 305 305 305 305 306 306 306 305 305 305 305 304 304 303 303 303 303 303 303 302 302 302 301 301 301 301 301 301 300 300 299 298 298 299 301 301 301 301 300 299 298 298 298 298 299 299
324 323 323 324 322 319 319 318 316 316 316 315 316 315 313 312 313 313 313 312 312 312 312 311 311 310 310 310 309 309 309 309 308 308 307 307 306 306 305 304 305 305 305 305 305 305 305 305 305 304 304 304 303 303 303 303 302 302 302 302 302 302 301 301 301 301 300 300 300 300 299 299 298 296 296 298 299 300 300 299 298 298 298 298 298 298 298
321 321 319 319 318 318 319 319 318 318 319 318 317 316 313 311 311 312 312 311 311 311 311 310 309 309 309 308 308 308 309 308 308 308 307 307 306 305 304 304 304 304 304 304 304 304 304 305 304 304 303 303 303 302 302 302 302 302 302 302 302 302 301 301 301 300 300 300 299 299 299 299 298 297 296 296 297 298 299 299 298 298 299 299 298 298 298
319 319 318 318 319 320 320 320 319 317 316 314 314 315 313 312 311 311 311 311 310 309 309 308 308 308 309 308 308 308 308 308 308 307 307 306 305 305 304 304 304 304 304 304 304 304 304 303 303 303 303 303 302 302 302 302 302 301 301 301 301 301 301 301 300 300 299 299 299 299 299 298 298 298 297 296 296 297 298 297 296 297 298 299 298 299 298
321 321 321 320 320 320 319 319 318 315 313 313 315 318 316 311 310 311 310 310 309 309 308 308 308 309 309 307 307 307 307 307 307 307 306 306 305 304 304 304 304 304 303 303 303 304 304 303 303 303 302 302 302 302 301 301 301 301 301 301 301 301 301 300 300 300 300 299 299 299 299 299 298 298 298 297 296 296 296 296 295 296 298 299 298 298 297
322 322 321 319 319 319 319 319 318 315 313 314 320 325 319 311 310 311 310 309 309 308 307 307 308 308 308 307 307 307 307 307 306 306 306 305 305 304 303 303 303 303 303 303 303 303 303 303 303 302 302 301 301 301 301 301 301 301 301 301 301 301 300 300 300 300 299 299 298 299 299 299 298 298 297 297 297 296 296 296 295 295 297 298 297 296 295
321 321 320 319 319 318 318 318 317 316 316 317 323 326 318 310 309 310 309 309 308 307 307 307 307 307 307 306 307 307 306 306 306 305 305 304 304 303 303 303 303 303 303 303 303 303 302 302 302 302 301 301 301 301 301 301 301 300 300 300 301 300 300 300 299 300 300 299 298 299 299 299 298 298 297 297 297 296 296 296 296 295 295 295 295 295 294
320 320 319 319 319 318 316 317 316 316 319 321 321 318 312 309 309 309 308 308 307 307 307 307 307 307 306 306 307 306 306 306 305 304 304 303 303 303 303 303 302 303 303 303 303 303 302 301 301 301 301 301 301 301 301 301 301 300 300 300 300 300 300 300 299 300 300 299 299 299 298 298 298 297 297 297 297 297 296 296 296 295 295 295 295 295 294
320 320 319 320 320 318 315 316 317 317 319 318 313 310 309 309 308 308 307 307 307 307 307 307 307 307 306 306 306 306 305 305 304 304 303 302 302 302 303 303 303 303 303 302 303 303 302 301 301 301 301 301 300 300 300 300 300 300 300 300 300 300 300 299 299 300 300 299 299 299 298 298 298 297 297 297 297 297 296 296 296 295 295 295 295 295 295
320 321 320 319 318 316 315 317 317 315 315 313 310 309 309 308 308 307 307 307 307 307 307 307 306 306 306 306 306 305 304 303 302 303 303 302 302 302 302 302 302 302 302 302 301 302 301 301 301 301 301 301 300 300 300 300 300 300 300 299 299 300 299 299 299 299 299 300 299 299 298 298 298 297 297 297 297 297 296 296 296 296 295 295 295 295 295
317 319 317 315 314 313 314 315 314 312 311 310 310 309 309 308 308 308 307 307 307 307 307 306 306 306 306 306 305 304 303 302 301 301 301 302 302 302 302 302 302 301 301 300 300 300 301 301 301 301 301 301 300 300 300 300 300 300 300 299 299 299 299 299 299 299 299 300 300 299 298 298 298 298 297 297 297 297 296 296 296 295 295 295 295 295 295
314 315 314 313 313 313 313 313 312 311 311 310 309 309 309 309 309 308 308 308 307 307 306 306 305 306 306 305 305 304 303 302 301 301 301 301 302 302 302 301 301 300 300 300 299 300 300 300 301 301 301 301 301 301 301 300 300 300 300 299 299 299 299 299 299 299 299 299 300 299 298 298 298 298 297 297 297 297 296 296 296 296 295 296 295 295 295
315 315 314 312 313 313 312 312 312 311 310 310 310 310 309 309 309 308 308 308 307 306 306 305 305 305 305 305 305 303 302 301 300 300 301 301 301 301 301 300 300 300 300 299 299 299 299 300 301 301 301 301 301 300 300 300 300 300 300 300 299 299 299 299 299 299 299 299 299 299 298 298 298 298 297 297 297 297 296 296 296 296 295 296 295 295 295
315 314 313 312 312 312 312 312 311 311 310 310 310 310 309 309 308 308 308 307 306 306 306 305 305 305 305 305 304 302 300 300 300 301 301 301 301 300 300 300 300 300 300 300 299 299 299 299 300 301 301 301 301 301 300 300 300 300 300 300 300 299 299 299 300 300 299 299 299 299 298 298 298 298 297 297 297 297 297 296 296 296 296 296 296 295 295
314 313 312 312 312 312 312 311 311 310 310 310 309 309 309 308 308 307 307 307 306 306 306 305 305 305 305 304 302 301 300 300 301 301 301 301 300 300 300 300 300 300 300 300 300 300 300 299 300 301 301 301 301 300 300 300 300 300 299 299 299 299 299 299 300 300 299 299 299 299 298 298 298 298 297 297 297 297 296 296 296 296 296 296 295 295 295
313 313 312 312 312 312 312 311 310 310 310 309 309 309 308 308 308 307 307 306 306 306 306 305 305 305 304 302 301 300 300 301 301 301 301 301 300 300 300 300 300 299 300 300 300 301 300 300 300 301 301 301 300 300 300 300 300 300 300 299 299 299 299 300 300 299 299 299 299 299 298 298 298 298 297 297 297 297 296 296 296 296 296 296 295 295 295
313 312 311 311 311 311 311 310 310 310 309 309 308 308 308 307 307 307 307 306 306 306 305 305 305 304 303 301 301 300 301 301 301 301 301 301 300 300 300 299 299 299 300 301 301 301 300 300 300 301 301 301 301 300 300 300 300 300 300 300 300 299 298 299 300 300 299 299 299 299 298 298 298 298 297 297 297 297 296 296 296 296 296 296 295 295 295
311 311 311 311 311 310 310 310 310 309 309 309 308 308 307 307 307 307 306 306 306 306 306 305 304 303 302 301 301 301 301 301 301 300 300 300 300 300 299 299 299 299 300 301 301 301 300 299 299 301 301 301 300 300 300 300 300 300 299 300 301 299 297 298 299 300 299 299 299 299 298 298 298 298 298 297 297 297 297 296 296 296 295 296 295 295 295
311 310 310 311 310 310 310 309 309 309 309 308 308 307 307 307 307 307 306 306 306 305 305 304 303 302 301 301 300 300 301 300 300 300 300 300 300 300 299 299 299 299 300 301 301 301 300 300 299 300 301 301 300 300 300 300 300 299 299 299 300 300 298 296 297 299 299 299 299 299 298 298 298 298 297 297 297 297 296 296 296 296 295 295 295 295 295
310 310 310 310 310 309 309 309 309 309 308 308 308 307 307 307 307 306 306 306 306 305 304 303 302 302 301 300 300 300 300 300 300 300 300 300 300 299 299 299 299 298 299 300 301 300 300 300 300 300 300 301 301 300 300 300 300 299 299 299 300 300 299 296 296 298 299 299 298 298 298 298 298 298 297 297 297 297 296 296 296 296 295 295 295 295 295
310 310 310 309 309 309 309 309 308 308 308 308 307 307 307 307 306 306 306 305 305 304 303 302 302 301 301 300 300 300 300 300 301 300 300 300 300 299 299 299 298 298 298 300 301 300 300 300 300 300 300 300 300 301 301 300 299 299 299 300 300 300 298 296 297 299 299 298 298 298 297 297 297 297 297 297 297 297 297 296 296 296 295 295 296 295 295
309 309 309 309 308 309 309 308 308 308 308 307 307 307 307 306 306 306 305 304 304 303 303 302 302 301 300 300 300 300 300 300 300 300 300 300 300 299 300 299 299 299 299 300 300 300 300 300 300 300 300 300 300 300 301 301 300 299 299 299 299 299 297 297 297 298 298 298 298 297 297 297 297 297 297 297 297 297 297 296 296 296 295 296 296 296 296
309 309 309 308 308 309 308 308 307 307 307 307 307 307 306 306 306 305 304 303 303 303 302 302 301 301 300 300 300 300 300 300 300 300 299 299 299 299 299 299 300 300 300 300 300 300 300 300 300 300 300 300 299 298 298 299 300 299 299 298 298 299 298 297 298 298 298 298 298 297 297 297 297 297 297 297 297 297 297 296 296 296 296 296 296 296 296
309 308 308 308 308 308 308 307 307 307 307 307 306 306 306 306 305 304 304 303 303 303 302 302 301 301 300 300 300 299 300 300 300 300 299 299 299 299 299 299 300 300 300 300 300 300 300 300 300 299 299 300 299 297 297 299 300 299 298 297 298 299 298 297 298 298 297 297 298 297 297 297 297 296 297 297 297 297 297 296 296 296 296 296 296 296 296
308 308 308 308 308 308 307 307 307 307 307 306 306 305 305 305 304 303 303 302 302 302 302 302 301 301 300 300 300 300 300 300 300 300 300 299 299 299 299 299 300 300 300 299 300 300 300 300 300 299 299 299 298 297 297 299 299 298 297 297 297 298 298 297 297 297 297 297 297 297 297 297 296 296 296 297 297 297 297 296 296 296 296 296 296 296 295
308 308 308 308 307 307 307 307 307 307 306 306 305 305 305 304 303 303 303 302 302 302 302 302 302 301 300 300 301 301 300 300 300 300 300 299 299 299 300 300 300 300 300 299 299 299 300 300 300 299 299 299 298 297 296 297 298 298 298 297 296 297 296 296 296 297 296 296 296 297 297 296 296 296 296 296 297 297 297 296 297 296 296 296 296 296 295
308 308 308 308 307 307 307 307 307 307 306 306 305 305 304 304 303 303 303 302 302 302 302 302 301 300 300 300 301 301 301 301 300 300 300 300 300 300 300 301 301 300 300 300 299 299 300 301 300 299 299 299 299 298 296 296 298 298 298 297 296 296 296 296 295 296 296 296 296 296 296 296 296 296 296 296 297 297 297 296 297 296 296 296 296 296 295
308 308 308 307 307 307 307 307 307 306 306 306 305 304 304 303 303 303 302 302 302 302 302 302 301 300 300 301 301 301 301 301 300 300 300 300 300 300 300 301 300 300 301 300 298 298 300 300 300 299 299 299 299 298 296 296 297 297 296 296 297 297 297 296 296 295 296 296 296 296 296 296 296 296 296 296 296 296 296 296 296 296 296 296 296 296 296
307 307 307 307 307 307 306 306 306 306 306 305 304 304 303 303 303 303 303 302 302 302 302 301 301 301 301 302 301 301 301 301 300 300 300 299 298 299 300 300 300 300 300 299 298 299 300 300 298 298 298 299 300 299 297 297 298 297 296 296 297 298 297 297 296 295 295 296 296 296 296 296 296 296 296 296 296 295 296 296 296 296 296 296 296 296 296
307 307 307 307 307 306 306 306 306 305 305 304 303 303 303 303 302 303 303 302 302 302 302 301 302 302 302 302 302 301 301 301 300 300 300 300 299 297 297 299 299 299 300 300 299 300 300 300 298 298 297 297 299 299 298 298 299 297 296 297 298 298 297 297 296 295 295 296 296 296 296 296 296 296 296 296 296 295 295 296 296 296 296 296 296 296 296
307 307 307 307 306 306 305 305 305 304 304 303 303 303 303 302 302 302 303 302 302 303 302 302 301 302 302 302 302 302 302 301 301 301 300 300 300 297 296 297 299 300 301 301 300 300 300 300 300 300 298 297 297 298 298 299 298 296 295 297 298 297 297 297 296 295 295 295 296 296 296 295 296 295 295 295 295 295 295 295 295 296 296 296 296 296 296
307 306 306 306 305 305 304 304 304 303 303 303 303 303 303 302 302 302 302 302 301 302 302 302 302 302 302 302 301 302 302 301 302 301 300 299 298 297 296 297 300 301 301 301 301 301 300 300 301 300 298 297 298 299 299 298 297 295 295 297 298 297 296 296 295 295 295 296 296 296 295 295 295 295 295 295 295 295 295 295 295 295 296 296 296 296 296
306 306 305 305 305 304 304 304 303 303 303 303 303 303 302 302 302 303 302 301 301 302 302 302 302 303 302 302 302 302 301 301 301 301 299 297 296 296 295 297 300 301 301 301 301 301 300 301 301 300 298 297 298 299 298 298 297 295 296 297 297 296 295 296 295 295 296 296 296 296 295 295 295 295 295 295 295 295 295 295 295 295 295 295 295 296 296
305 305 305 305 304 304 304 303 303 303 303 303 303 302 302 302 302 302 302 302 302 303 303 302 303 303 302 302 302 302 301 301 301 300 298 296 296 295 295 297 300 301 302 302 301 301 301 301 300 298 297 298 299 298 298 298 297 295 296 297 297 296 296 296 295 295 296 296 296 296 295 295 295 295 295 295 295 295 295 295 295 295 295 295 295 295 295
305 305 305 304 304 304 303 303 303 303 303 303 303 302 302 302 302 302 303 302 302 303 303 303 303 303 303 302 302 302 302 301 300 298 296 296 296 295 295 297 300 301 301 301 301 301 300 300 299 298 297 298 299 298 299 299 297 296 296 297 297 296 296 296 296 296 296 296 295 296 296 295 295 295 295 295 295 295 294 294 294 294 294 294 294 295 295
305 305 304 304 304 304 303 303 303 303 303 303 303 302 303 302 302 302 303 303 302 303 303 303 303 303 302 302 301 301 300 299 298 297 297 298 297 296 295 296 299 301 301 301 301 301 301 300 300 299 298 298 298 299 299 298 297 296 296 297 297 296 296 296 296 296 296 296 295 295 296 295 295 295 295 295 295 295 294 294 294 294 294 294 294 294 294
305 305 305 304 304 303 303 303 303 303 303 303 303 302 303 303 303 302 302 303 302 302 303 303 303 302 302 302 302 301 299 297 297 299 301 301 300 298 296 297 299 300 301 301 301 301 301 301 300 299 298 298 298 298 298 298 297 296 296 296 297 296 296 296 296 296 296 296 296 295 295 295 295 295 295 295 295 295 294 294 294 294 294 294 294 294 294
305 305 304 304 303 303 303 303 303 303 303 303 303 302 303 303 303 302 302 302 302 302 302 302 302 302 302 302 302 302 301 300 300 301 302 302 301 299 298 299 300 301 301 301 301 301 301 301 300 299 298 298 298 298 298 298 297 297 297 297 296 296 296 296 296 296 296 296 296 296 295 295 295 295 295 295 295 295 294 294 294 294 294 294 294 294 293
305 304 304 303 303 303 303 303 303 303 303 303 303 302 303 303 303 302 302 302 302 302 302 302 302 302 303 303 302 302 302 302 302 302 302 302 302 301 300 300 301 301 301 302 302 301 302 301 300 298 298 298 298 298 298 298 298 298 297 297 296 296 296 296 296 296 296 296 296 296 296 295 295 295 295 295 295 295 295 294 294 294 294 294 294 293 293
304 304 304 304 303 303 303 303 303 303 303 303 303 303 303 302 302 302 302 302 302 302 302 302 302 302 302 302 302 302 302 302 302 302 302 302 302 302 301 301 301 301 301 301 302 302 302 301 300 298 298 298 299 299 298 298 298 298 297 296 296 296 296 296 296 296 296 296 296 296 296 295 295 295 295 295 295 295 294 294 294 294 294 294 293 293 293
304 304 303 303 303 303 303 303 303 303 303 303 303 303 302 302 302 302 302 303 303 302 302 302 302 302 302 302 302 302 302 302 302 302 302 302 302 302 302 302 302 301 301 301 301 301 301 300 300 299 298 298 298 299 298 298 298 298 297 297 296 296 297 296 296 296 296 296 296 296 296 296 296 295 295 295 295 294 294 294 294 294 294 294 293 293 293
304 303 303 303 304 303 303 303 303 303 303 303 303 303 303 302 302 302 302 303 303 302 302 302 302 302 302 302 302 302 302 302 302 302 302 302 302 302 302 302 302 302 301 301 301 301 301 300 300 300 299 297 297 298 298 298 298 298 297 296 296 297 297 296 296 296 296 296 296 296 296 296 296 295 295 294 294 294 294 294 294 294 294 294 293 293 293
304 303 303 303 304 304 304 304 303 303 303 303 303 303 303 303 302 302 303 302 302 302 302 302 302 302 302 302 302 302 302 302 301 301 301 302 302 302 302 302 302 302 301 301 301 301 301 301 301 301 300 298 297 297 297 297 298 297 297 296 296 297 297 296 296 296 296 296 296 296 296 296 295 295 295 295 294 294 294 294 294 294 294 293 293 293 293
304 303 303 304 304 304 304 304 304 304 303 303 303 303 303 303 303 303 303 303 302 302 302 302 302 302 302 302 302 302 302 302 301 301 301 301 301 301 301 302 301 301 301 301 301 301 301 300 300 299 298 297 297 297 297 297 297 296 296 296 297 297 296 296 296 296 296 296 296 296 295 295 295 295 295 295 294 294 294 294 294 293 293 293 293 293 293
304 304 304 304 304 304 304 304 304 304 303 303 303 303 303 303 302 303 303 303 303 303 302 302 302 302 302 302 302 302 302 302 302 301 301 301 301 301 302 302 301 301 301 301 300 300 300 300 299 298 297 297 297 297 297 297 297 296 296 296 297 296 296 296 296 296 296 296 295 295 295 295 295 295 294 294 294 294 294 294 294 294 293 293 293 293 293
304 304 304 304 304 304 304 304 304 304 303 303 303 303 303 303 303 303 303 302 303 303 302 302 302 302 302 302 302 302 302 302 301 301 301 301 301 301 301 301 301 301 301 300 300 300 299 299 298 298 297 297 298 298 297 297 296 296 295 296 296 296 296 296 296 296 296 295 295 295 295 295 294 294 294 294 294 293 293 293 293 293 293 293 293 293 293
Wind_Speed
4 6 7 9 5 3 6 6 5 5 4 7 7 7 10 10 7 6 10 14 16 15 15 15 16 16 17 19 23 25 25 26 25 25 24 22 20 19 17 16 15 14 14 15 17 17 15 15 15 16 19 21 22 21 19 19 21 22 23 24 23 22 23 26 27 29 31 33 33 32 31 31 30 29 27 26 25 25 25 25 25 26 25 24 24 24 23
7 8 9 10 11 9 7 7 6 6 9 6 4 6 8 10 12 14 16 13 11 11 11 13 17 22 24 25 26 26 27 27 27 26 24 22 20 19 17 16 15 14 13 14 17 17 16 16 16 17 18 19 19 20 19 20 20 20 20 20 20 20 21 22 24 26 29 31 32 33 34 35 35 35 33 31 30 28 26 25 25 26 26 25 24 25 26
5 7 10 11 12 12 13 12 11 11 14 15 13 11 13 15 15 16 18 14 8 6 11 17 22 25 25 24 25 25 25 27 28 27 25 23 21 19 17 16 15 14 13 14 16 16 15 16 17 18 18 17 17 19 20 20 19 17 17 18 18 19 19 20 22 25 27 29 30 31 33 34 34 35 35 35 35 34 33 30 27 26 28 28 27 27 27
3 4 8 8 7 10 13 12 12 11 10 10 9 7 8 13 17 19 16 11 6 6 12 18 21 23 23 22 24 25 25 27 27 26 26 24 22 20 19 17 16 15 15 14 15 16 16 15 16 17 16 15 16 18 19 18 17 17 17 18 19 21 21 21 23 25 26 27 27 28 30 31 32 32 33 35 36 36 37 36 32 28 29 31 32 31 30
1 2 5 3 3 7 7 6 7 5 5 10 11 9 8 11 16 15 10 9 10 11 14 15 15 16 19 20 22 25 26 27 27 27 27 24 21 20 18 16 16 16 16 15 15 16 16 16 16 15 15 16 16 16 16 16 16 18 19 20 22 24 24 23 24 25 26 26 26 26 26 27 28 28 30 32 33 35 37 38 37 34 32 32 34 36 35
1 3 6 5 3 4 1 5 4 1 5 13 14 10 8 7 7 6 6 10 14 13 14 14 13 13 16 19 22 25 28 29 28 28 25 22 21 20 17 16 16 16 16 16 15 15 16 16 15 15 15 16 16 15 15 15 16 18 19 20 22 24 25 24 24 25 26 27 27 26 25 25 25 26 27 28 30 32 34 36 38 37 35 34 36 38 38
2 4 6 3 2 1 2 3 6 7 11 18 19 13 8 7 10 13 14 14 15 16 17 18 19 20 22 23 24 26 27 27 27 26 23 20 21 20 19 18 17 17 17 16 15 16 16 16 15 15 15 15 15 16 16 17 18 19 19 19 21 24 25 25 24 25 26 26 26 27 27 26 28 28 26 26 28 30 31 34 37 36 34 35 37 38 38
3 3 3 2 2 1 0 3 7 8 8 11 15 13 8 5 10 16 16 13 15 19 21 23 24 27 28 27 25 25 25 23 22 22 21 19 19 19 18 18 18 17 17 16 16 15 16 16 15 15 15 15 16 17 17 18 20 20 19 18 20 23 25 25 24 23 23 24 26 28 28 28 31 33 31 28 27 27 29 31 34 34 33 34 36 38 39
3 4 2 1 0 2 3 3 4 3 2 2 5 7 5 4 7 15 16 13 15 19 23 25 29 31 29 21 17 21 23 20 20 20 19 19 20 20 19 18 18 18 17 16 16 15 15 15 15 16 16 16 17 17 17 18 19 19 19 19 20 22 23 24 23 22 22 24 26 27 28 29 30 33 35 32 28 26 27 29 31 31 32 33 35 36 37
3 4 3 2 1 3 5 5 2 2 8 9 8 7 6 5 9 17 18 14 16 20 23 26 29 28 19 9 9 18 21 20 21 20 18 18 19 18 19 18 18 18 17 16 16 15 15 15 15 16 15 14 16 17 18 18 18 18 19 19 18 19 21 22 22 22 23 24 26 27 28 30 30 32 35 35 32 28 27 28 29 28 29 32 34 33 34
4 4 2 3 1 2 5 6 2 8 16 14 9 6 3 6 15 21 20 18 20 23 25 28 26 19 10 4 10 19 22 20 21 20 18 18 16 16 18 18 17 17 16 15 15 15 15 15 16 16 15 15 17 18 18 18 18 18 19 18 16 17 20 21 22 23 23 24 25 26 27 29 30 31 33 35 35 33 31 30 30 27 26 28 32 32 33
4 4 2 1 1 3 4 6 6 10 12 8 6 2 3 11 21 25 23 23 24 25 28 27 18 9 8 12 18 23 23 21 20 19 20 20 17 16 18 19 17 17 15 14 14 14 14 15 16 16 16 16 17 17 16 16 17 17 18 17 15 16 20 22 21 22 24 25 26 26 25 27 29 30 32 35 36 35 35 35 34 30 26 26 30 32 34
5 5 2 1 1 2 3 7 10 11 7 4 2 3 8 19 26 27 26 26 25 27 28 22 10 7 15 26 29 27 25 23 20 20 20 19 17 18 19 18 17 16 15 14 14 13 13 15 17 16 16 16 16 16 16 17 16 16 16 15 14 16 20 22 21 21 23 26 26 25 23 24 27 30 31 34 36 36 36 37 37 36 32 30 32 35 37
4 3 3 2 0 2 2 7 11 10 5 1 2 5 18 31 31 28 28 28 27 29 26 16 12 17 26 31 29 27 26 24 21 20 19 18 18 19 18 17 16 16 16 15 14 13 13 15 17 16 15 15 15 15 16 16 15 15 16 17 16 17 19 21 21 20 21 24 25 24 24 25 28 30 31 33 35 36 37 37 37 38 37 35 36 38 39
3 3 3 3 2 4 5 6 6 4 3 5 10 19 26 31 31 30 30 29 29 29 23 16 22 31 32 29 26 26 26 24 21 20 20 20 19 18 18 18 16 16 16 15 15 13 12 14 17 16 14 13 15 16 16 15 14 13 14 16 17 17 18 20 21 19 18 20 23 24 26 27 28 29 30 32 34 35 37 37 37 38 39 38 38 40 41
2 3 3 2 2 4 6 5 4 5 9 17 26 30 27 26 30 30 29 28 30 28 23 25 32 35 31 29 28 28 26 23 21 21 21 21 20 19 19 18 16 15 15 15 15 13 12 13 15 16 14 13 14 15 14 13 13 12 12 13 15 16 16 18 19 19 18 16 18 23 27 27 28 29 30 32 34 35 36 37 37 37 39 39 40 42 44
2 4 3 4 10 13 13 14 17 20 22 24 28 31 29 28 29 28 28 30 29 28 29 34 35 32 30 31 30 29 27 24 22 21 21 20 20 20 21 19 17 16 16 15 14 14 13 11 12 14 15 14 14 14 13 13 12 12 13 13 14 14 14 15 16 18 17 14 14 20 25 25 26 28 30 31 33 34 35 36 36 37 38 40 40 41 44
5 8 8 10 16 19 20 23 26 27 25 25 26 29 28 27 27 27 29 31 31 32 36 37 32 30 32 32 30 28 27 24 22 22 22 21 21 21 20 18 17 17 16 15 14 14 13 11 11 13 15 14 12 11 12 12 12 12 12 13 13 12 12 14 15 15 16 15 14 18 23 23 23 26 29 30 32 33 34 34 36 36 37 39 40 41 44
4 5 5 9 15 19 23 25 26 26 27 26 25 26 26 26 27 29 31 31 33 36 37 36 34 33 33 31 29 28 27 25 23 23 23 22 20 19 18 17 17 16 15 14 14 13 13 13 12 12 13 12 9 8 9 9 10 12 12 12 14 14 11 12 14 14 14 16 16 17 19 21 22 24 27 29 30 32 32 33 35 35 36 38 39 40 43
5 5 7 14 21 22 23 25 26 26 26 24 24 26 28 28 30 30 30 32 34 35 34 34 36 35 31 29 30 29 27 26 24 24 24 22 21 19 18 18 17 15 15 14 13 12 12 12 12 13 13 11 8 9 10 8 8 10 10 11 13 14 13 13 14 14 14 15 16 17 17 19 21 23 26 28 28 29 31 32 33 34 34 35 37 38 41
7 7 11 17 18 16 17 22 25 25 26 26 27 28 29 29 31 31 31 31 33 33 33 35 35 32 28 29 30 29 28 27 25 25 24 23 21 20 19 18 17 15 15 14 13 13 12 11 12 14 14 12 10 10 11 10 9 9 9 10 10 10 10 11 12 13 14 14 15 16 17 18 20 21 23 26 26 27 28 29 31 32 32 33 35 36 38
4 4 10 13 10 8 12 21 25 26 28 29 29 29 28 29 31 32 31 29 29 30 33 34 31 29 30 30 30 29 28 27 26 25 24 22 22 21 20 19 17 16 15 14 14 13 11 10 13 15 15 12 9 8 8 9 10 9 7 11 13 10 8 9 10 11 13 13 13 14 17 18 19 19 21 23 23 24 25 27 28 30 30 31 34 35 35
6 11 15 16 13 12 17 24 28 29 30 30 29 30 30 30 31 31 31 31 31 31 30 29 28 29 31 30 29 29 28 26 26 25 23 21 20 19 18 17 16 15 15 14 14 12 10 10 13 15 14 12 9 8 8 7 9 9 7 8 11 11 9 9 9 11 14 13 11 12 15 16 17 18 20 20 20 21 23 24 27 28 27 29 32 33 34
13 18 22 21 20 20 24 28 30 30 30 31 30 30 31 30 30 30 31 33 34 32 29 27 27 29 30 29 29 29 28 26 25 23 21 20 19 18 17 17 16 16 15 14 13 11 9 10 13 14 14 13 10 8 7 6 8 9 8 6 7 10 12 10 6 8 14 14 11 11 13 13 14 17 18 18 19 20 20 23 25 26 25 26 30 30 32
22 22 25 26 25 25 27 30 30 29 30 31 30 30 30 30 30 30 31 32 32 32 31 29 28 28 29 30 29 28 27 26 24 22 21 20 19 18 18 17 16 15 15 14 13 11 10 10 11 13 13 12 11 8 7 8 7 6 7 6 5 9 15 14 7 7 11 12 10 12 13 13 14 15 16 17 18 18 19 21 24 25 22 23 27 28 30
28 28 30 29 26 27 29 28 27 28 29 29 29 29 29 30 30 31 31 31 30 30 30 30 28 28 28 28 27 26 26 25 23 22 21 21 19 18 17 15 14 14 15 14 13 11 11 10 9 10 12 12 11 8 6 7 6 5 6 7 6 9 16 17 10 8 10 9 9 13 15 14 14 14 15 16 16 17 18 20 23 24 22 21 24 26 28
31 34 34 28 23 25 28 28 27 28 28 28 29 29 29 30 31 30 29 28 28 28 30 29 28 28 27 26 26 26 26 25 23 22 21 20 18 18 16 13 11 12 14 15 13 11 10 9 8 9 10 10 8 5 3 3 5 6 6 7 8 12 16 14 9 10 10 9 9 13 14 14 14 14 15 16 16 16 18 19 22 24 22 20 22 24 26
31 33 33 28 24 25 27 29 29 28 27 28 29 30 30 30 29 28 28 28 28 29 30 29 27 27 28 27 27 27 25 24 23 21 20 19 19 18 16 14 12 12 13 13 13 11 8 7 7 8 8 5 3 3 4 4 6 7 6 5 8 13 15 11 9 9 9 9 10 13 13 13 14 15 14 14 15 16 17 18 20 21 19 19 21 23 24
25 26 28 28 28 28 29 29 29 28 28 29 29 29 30 29 28 27 29 30 30 30 29 28 27 27 27 26 25 25 25 23 22 21 20 19 18 18 17 15 13 12 11 12 12 10 7 5 6 8 8 4 0 1 5 7 6 7 5 4 6 9 11 10 8 7 7 8 11 12 11 10 13 15 15 14 15 16 16 17 19 18 17 19 22 23 24
22 23 25 26 27 29 30 30 29 28 29 29 28 28 29 29 28 28 29 30 30 28 27 28 28 26 24 23 24 24 24 23 22 21 19 18 17 17 17 16 15 13 12 12 11 10 8 6 6 6 6 3 0 1 6 9 7 6 4 4 5 7 8 8 8 9 8 8 8 8 8 10 14 17 16 13 14 16 17 17 17 18 18 20 22 23 23
23 25 26 27 29 30 29 28 28 29 29 29 29 30 29 28 29 29 28 28 28 26 26 28 27 24 22 23 23 21 21 22 21 20 18 17 16 16 16 15 14 14 13 13 12 10 7 6 5 5 5 3 1 1 6 9 7 6 4 4 4 5 7 8 9 10 11 9 6 5 6 10 16 18 15 12 13 16 16 14 15 19 20 20 20 21 21
27 27 28 29 29 28 28 28 28 29 29 30 30 29 27 28 32 32 28 26 27 28 28 27 24 22 23 23 21 20 21 21 19 18 18 17 16 15 13 11 11 14 14 13 12 10 7 5 4 5 4 2 2 1 4 8 7 5 5 4 2 4 7 8 8 9 11 10 8 6 7 11 16 16 14 13 14 15 15 13 15 18 20 20 20 20 19
29 28 28 29 29 28 28 29 29 29 30 31 29 26 26 29 33 32 28 26 27 27 26 22 20 22 23 22 21 21 22 20 19 18 18 18 17 16 14 11 10 13 14 11 9 10 10 6 4 5 5 3 1 2 1 5 6 3 1 2 5 6 8 8 8 8 9 9 9 9 10 13 15 13 13 14 14 13 13 14 15 17 18 19 20 20 18
28 27 28 30 31 31 31 32 31 30 31 30 28 26 27 29 29 28 27 26 24 23 21 20 21 24 24 23 23 24 22 21 20 19 18 18 18 18 16 14 11 12 11 8 7 11 11 7 5 5 6 5 3 1 2 3 2 1 1 2 6 8 7 7 7 7 7 8 9 9 10 13 13 11 11 13 13 12 13 13 14 16 17 17 18 20 19
26 26 27 28 30 31 32 32 32 31 31 30 29 28 29 30 28 26 26 25 23 22 21 20 21 23 24 25 25 24 22 20 19 18 17 16 15 15 16 15 13 12 11 8 8 11 11 7 3 3 3 5 5 3 1 2 5 7 3 3 6 6 6 6 7 6 6 7 8 8 9 12 12 10 10 12 13 13 14 12 12 14 17 17 17 19 19
26 27 27 27 29 29 30 30 30 29 30 30 29 28 29 29 28 26 25 24 23 23 23 21 21 23 23 23 23 23 21 19 18 17 16 15 12 13 15 15 14 14 13 11 10 13 13 9 3 2 1 4 6 5 4 1 5 8 2 3 5 5 5 5 7 6 5 6 8 8 9 12 11 9 11 13 13 13 14 13 12 13 15 16 16 17 17
27 27 27 26 26 26 27 28 28 27 27 28 27 26 26 26 24 24 24 24 24 24 24 23 22 23 23 21 19 18 18 17 16 16 16 15 13 13 15 15 15 16 15 14 14 15 15 12 6 1 0 2 4 4 4 2 5 6 2 4 4 5 4 5 6 5 5 5 7 7 9 10 9 10 12 14 12 12 14 14 13 12 14 15 15 15 15
27 27 28 27 25 24 26 27 25 25 26 27 27 27 28 27 25 23 24 24 24 23 23 21 21 23 24 22 20 18 17 17 16 15 15 15 15 15 16 16 17 15 13 12 15 19 18 13 8 4 3 3 4 4 4 2 5 4 2 5 4 4 3 4 5 5 5 5 6 7 8 8 8 10 11 12 11 12 14 15 13 13 14 14 12 12 14
25 25 27 27 25 26 29 28 25 25 26 26 25 26 27 27 26 25 24 24 23 23 22 21 20 22 23 22 21 20 19 18 17 15 14 15 15 16 16 16 16 11 6 7 12 18 18 13 7 4 4 6 7 6 5 3 5 2 4 6 4 2 2 4 4 3 3 4 5 7 8 8 9 9 9 9 10 11 11 12 12 13 15 14 12 12 14
24 25 27 26 24 26 29 28 25 25 25 24 24 24 24 25 26 25 25 25 23 23 22 21 21 22 24 23 22 21 20 18 16 15 14 15 16 17 17 17 16 10 5 7 12 14 14 11 6 3 5 9 9 7 7 6 5 2 4 5 3 2 2 4 4 1 1 3 5 6 7 8 8 8 8 9 10 10 10 11 13 13 13 13 13 14 14
26 28 29 27 24 26 28 27 25 25 25 25 24 24 25 26 25 23 23 25 23 20 20 20 20 21 22 21 19 18 18 17 15 14 15 16 17 17 18 20 18 15 10 11 13 11 10 10 8 5 7 11 11 9 11 10 7 4 4 5 4 4 3 5 5 3 3 4 5 5 5 6 7 8 9 9 9 9 9 12 13 12 12 13 14 14 13
27 28 30 28 26 26 27 27 27 27 26 26 25 25 25 27 26 22 20 22 22 19 18 18 19 18 16 14 13 14 15 15 14 13 12 12 14 15 17 19 19 17 14 14 14 13 12 13 11 8 10 13 13 11 10 9 7 5 6 7 6 5 6 6 4 3 3 4 4 4 6 8 9 9 10 10 10 10 10 11 12 12 12 11 11 12 12
28 28 30 29 28 28 29 29 28 28 27 26 26 25 25 26 27 23 20 21 23 23 19 16 15 14 13 12 11 12 13 15 16 15 12 9 10 12 14 15 16 17 16 17 18 18 16 14 12 10 11 14 14 12 11 8 5 5 6 8 5 5 6 5 3 3 5 6 6 6 8 9 10 10 10 10 11 12 12 10 10 11 11 8 8 11 13
29 30 30 30 30 30 30 29 29 29 27 26 26 27 26 24 23 23 23 24 25 25 23 18 15 13 14 15 15 14 14 15 16 16 14 12 11 12 13 13 12 13 13 16 21 22 18 14 12 10 8 10 12 12 13 11 8 6 7 8 6 4 5 6 5 6 7 8 8 8 9 10 10 10 10 11 12 12 11 9 8 9 9 8 9 13 14
30 31 31 31 31 31 31 30 30 30 29 27 26 27 27 24 22 22 25 27 26 25 24 22 20 18 16 16 17 17 16 15 15 15 16 15 13 13 14 14 13 11 12 14 18 20 18 14 13 11 9 9 11 13 14 15 12 8 8 10 9 6 6 8 8 8 8 9 9 8 8 7 7 8 10 12 13 12 9 7 7 7 8 9 11 14 15
31 31 32 31 31 31 31 31 29 28 27 27 27 26 27 26 24 22 23 25 25 24 22 21 22 23 21 19 18 19 18 17 16 16 17 16 13 11 12 15 15 14 14 15 18 20 19 16 14 12 12 12 13 13 14 16 14 10 9 10 10 8 7 9 9 9 8 8 8 7 7 6 5 5 6 8 9 9 8 7 8 9 11 12 13 14 15
32 32 32 32 31 31 31 30 28 27 27 28 28 28 28 29 27 25 23 23 23 23 22 21 21 22 21 20 21 21 21 19 18 17 18 19 17 14 13 15 17 18 19 20 21 21 20 17 15 13 13 14 15 14 15 16 15 12 9 10 11 8 8 9 9 8 8 9 9 9 8 8 8 8 8 8 8 8 8 9 10 12 13 14 14 14 16
33 34 33 31 31 31 30 29 30 30 28 27 27 29 31 30 28 26 25 23 21 20 21 22 21 19 16 16 18 19 20 21 22 20 18 19 21 20 19 19 20 20 21 23 23 22 19 17 16 14 13 13 14 15 16 17 16 14 12 12 12 8 8 10 11 11 11 11 11 11 11 12 12 10 8 7 8 9 10 12 14 15 15 15 14 14 15
33 34 33 31 31 31 31 30 31 31 29 26 25 26 29 30 29 27 25 24 22 20 19 21 23 20 17 17 18 18 17 19 20 20 17 16 17 20 22 22 21 20 21 21 21 20 18 18 17 15 14 15 15 16 17 17 16 14 12 13 12 10 12 15 15 14 14 14 14 15 15 14 13 10 8 8 9 10 11 12 13 13 12 12 12 12 13
32 33 33 32 32 32 32 31 32 31 29 27 26 25 25 27 28 25 22 23 25 24 23 23 24 25 23 22 20 19 18 17 16 17 18 17 15 15 17 19 20 19 18 18 17 17 17 16 15 14 15 16 16 16 15 14 13 13 13 15 12 11 14 16 16 16 16 16 16 16 16 14 13 13 13 13 12 11 10 10 9 8 8 9 10 11 12
33 33 34 33 32 32 31 30 30 30 29 28 28 28 27 27 28 26 24 24 26 26 25 24 24 26 27 25 22 20 20 20 18 17 20 20 17 14 13 15 16 16 16 16 16 15 14 13 12 12 13 14 14 13 12 11 11 12 15 17 14 11 13 14 14 15 15 14 14 15 16 16 16 16 16 15 13 13 12 12 11 11 11 11 10 10 11
32 33 33 32 31 31 30 29 29 29 29 28 29 29 29 29 31 32 30 28 27 26 26 24 23 22 23 24 22 20 19 20 20 20 20 20 16 13 13 16 16 16 16 16 15 13 12 11 11 12 13 14 14 13 12 11 10 11 14 16 15 13 14 15 15 15 14 14 15 16 17 17 17 15 13 12 13 14 13 12 11 11 11 11 12 13 14
Wind_Direction
10 40 36 14 19 193 187 174 221 251 231 229 213 151 153 156 131 147 168 148 138 146 149 143 142 141 140 141 140 138 136 134 131 127 124 122 120 117 113 109 105 103 102 93 89 92 86 74 70 69 64 62 64 63 58 52 50 52 53 52 52 49 45 42 38 34 32 30 30 31 32 33 31 30 31 33 32 29 25 23 21 19 19 19 19 18 16
23 38 55 46 52 61 58 49 34 55 76 79 87 107 119 114 112 128 137 127 118 131 138 136 136 137 138 137 136 137 136 134 132 131 128 125 122 120 115 110 106 103 103 98 93 93 90 80 76 73 66 63 66 69 64 55 53 57 57 55 54 50 49 51 47 39 34 32 31 31 30 29 30 30 29 29 28 28 27 25 22 18 14 12 13 15 16
39 45 64 67 74 75 58 36 27 50 71 74 79 92 97 97 102 113 118 112 103 117 128 130 134 136 136 136 138 139 139 137 135 133 131 128 125 122 118 112 107 101 98 97 97 95 88 81 80 78 72 70 73 73 67 57 55 58 57 53 50 45 47 54 56 50 42 37 35 34 31 30 30 29 28 26 25 24 23 22 21 19 15 12 10 10 12
17 29 67 74 79 74 59 38 22 27 56 80 88 86 94 114 121 120 121 127 137 144 134 129 134 138 138 140 142 140 139 138 135 132 130 129 126 121 116 112 107 101 94 91 92 91 86 81 79 76 72 72 72 71 68 64 58 53 49 48 44 42 47 55 59 56 49 43 40 38 36 33 31 31 29 25 22 20 18 17 18 20 19 15 12 10 9
309 353 59 50 43 59 42 5 350 357 60 88 79 58 66 110 128 133 146 155 147 145 140 134 136 139 139 141 141 138 137 134 128 128 130 128 125 122 118 114 109 103 97 91 89 89 86 83 79 75 72 72 71 71 71 68 61 53 48 46 42 41 48 55 59 56 50 44 40 38 38 36 32 33 34 28 22 18 16 15 15 18 21 20 17 14 12
202 346 19 18 50 80 9 314 324 331 105 97 88 74 70 91 111 113 121 135 137 139 141 139 138 133 130 133 136 136 134 129 123 125 128 126 124 123 119 115 110 105 101 94 91 92 90 86 85 82 79 78 75 73 69 66 65 62 55 48 42 41 44 50 55 54 49 45 39 34 33 31 30 34 39 36 28 19 15 14 14 15 20 23 22 18 16
111 21 27 59 128 177 290 6 61 88 104 100 93 80 65 85 107 107 110 126 136 137 136 133 127 120 118 120 125 128 129 126 123 123 121 121 125 124 118 113 107 103 103 97 94 95 94 91 90 88 86 84 81 76 69 63 64 65 60 52 45 42 42 48 54 52 48 44 39 33 30 30 32 34 38 41 36 25 17 14 13 15 20 23 23 20 18
100 72 71 142 193 258 255 97 101 112 114 102 91 74 54 75 111 117 121 129 134 133 132 128 123 117 112 109 113 122 126 125 123 122 119 121 129 128 121 115 108 102 99 97 96 99 101 99 94 88 86 84 80 76 71 66 63 63 62 57 50 45 44 47 50 48 46 44 39 35 33 32 34 33 34 38 38 32 23 15 13 17 22 23 23 21 19
95 108 105 83 8 232 187 163 159 161 185 160 108 94 89 101 118 124 128 134 138 135 130 126 123 118 110 101 105 119 126 127 126 126 124 123 125 125 120 115 111 107 103 100 98 97 101 103 98 91 85 80 78 74 71 69 66 63 64 62 55 48 43 43 43 45 47 46 41 37 35 33 31 30 30 33 36 35 28 17 14 19 22 20 19 19 18
99 107 103 109 167 229 197 197 233 103 112 118 109 99 107 134 144 141 139 140 141 136 130 129 126 121 112 103 120 128 130 133 133 132 131 128 125 123 119 112 109 107 106 106 103 97 94 95 96 92 86 84 84 75 69 70 67 63 63 61 52 44 39 38 40 43 46 45 42 39 36 33 30 27 27 29 33 35 31 22 18 23 24 18 16 17 17
120 117 112 142 189 253 201 197 189 117 126 123 97 80 114 158 158 153 147 144 144 141 138 137 135 130 125 145 150 141 138 140 140 137 136 136 132 127 122 116 113 111 108 107 108 105 98 94 92 89 83 83 84 76 69 69 67 63 61 55 47 43 40 39 40 40 40 41 42 41 36 32 30 27 24 27 30 32 32 27 25 30 30 21 16 16 15
130 117 87 120 245 269 197 169 151 148 149 128 84 78 192 166 158 157 152 147 147 145 143 143 143 145 154 156 154 149 145 144 144 143 142 142 139 130 123 118 116 116 112 108 106 104 103 101 96 90 83 79 78 77 74 69 66 66 63 57 54 49 41 39 39 38 39 41 44 44 38 31 29 28 25 26 27 28 29 28 28 31 32 24 18 17 14
121 113 102 112 266 264 176 159 170 171 151 96 71 224 179 154 153 156 153 148 147 147 145 144 143 146 150 150 150 151 150 149 147 142 140 138 134 128 125 124 122 120 116 110 105 100 99 101 96 89 83 79 76 76 75 68 65 66 65 64 62 51 40 37 38 39 39 40 42 45 41 32 30 30 27 26 26 26 26 26 25 26 28 26 22 20 19
118 106 106 103 349 275 189 169 178 171 141 135 236 158 146 147 149 153 152 148 148 149 148 146 144 145 147 148 149 151 152 150 145 140 139 137 132 130 132 131 128 125 120 114 107 99 94 99 97 89 84 82 79 76 72 66 63 64 67 70 65 49 39 38 40 40 37 35 37 41 39 33 30 29 26 24 25 25 23 24 24 24 24 23 21 20 19
108 82 98 125 174 214 189 161 168 179 185 172 137 123 132 144 147 148 151 151 152 154 154 153 149 147 148 150 148 147 147 146 146 147 147 144 139 138 138 136 133 132 127 118 111 102 94 99 102 95 85 81 79 77 71 65 63 59 61 69 65 50 39 39 40 38 33 31 33 35 33 29 27 27 25 23 23 22 21 21 22 22 21 20 18 17 15
130 124 169 194 141 159 170 157 134 126 135 140 135 130 135 145 147 149 153 155 157 160 157 150 147 147 148 149 145 144 146 147 147 147 147 144 143 144 141 138 136 133 124 115 112 108 100 101 105 99 89 78 76 76 69 63 65 56 49 64 70 57 45 43 43 39 32 28 30 31 28 24 24 26 25 22 21 21 20 19 19 20 19 17 16 15 13
109 113 146 128 93 94 110 119 117 118 125 135 139 137 140 146 151 154 154 154 158 161 154 147 146 147 148 147 147 147 148 146 144 144 144 142 142 141 137 133 130 125 119 114 111 108 104 101 103 103 95 81 75 76 68 61 62 52 44 60 74 68 56 51 48 43 37 30 28 29 25 20 21 25 23 21 20 19 18 18 18 17 17 15 13 14 13
86 66 75 96 94 92 101 110 116 122 127 132 136 137 140 147 152 152 151 153 156 156 151 147 147 148 148 148 149 150 148 147 147 146 143 140 137 136 134 132 131 127 122 118 114 111 109 103 100 101 96 87 83 86 83 76 67 52 46 53 58 61 65 59 51 46 43 37 30 26 23 19 19 23 23 21 19 18 17 18 17 16 14 13 12 12 11
104 68 74 94 98 102 106 109 114 122 128 132 136 138 140 144 146 146 149 153 155 153 151 149 148 150 151 150 150 149 147 146 144 142 140 138 136 134 132 131 129 125 120 117 117 117 117 115 112 103 93 87 83 78 83 93 84 67 62 56 46 44 54 55 44 39 42 40 30 22 21 21 20 22 23 20 18 17 18 17 16 15 13 11 11 11 9
93 108 115 105 105 110 115 117 120 124 128 133 135 135 135 136 138 142 148 151 152 151 151 151 150 150 152 150 149 148 146 144 142 140 139 137 135 134 134 132 129 126 123 120 118 117 116 119 125 117 101 90 77 60 60 75 86 79 73 63 50 44 43 44 39 31 34 40 34 25 24 24 23 23 23 20 17 16 17 16 15 15 13 11 10 10 8
96 109 122 114 108 110 118 124 128 131 132 132 132 133 134 134 136 141 145 148 149 150 151 152 151 151 151 150 148 147 146 145 144 142 138 137 138 138 138 137 133 129 125 122 119 114 110 115 126 121 105 92 84 72 60 53 57 69 66 51 48 49 44 41 36 24 22 32 36 31 25 21 20 22 22 19 17 15 15 15 14 13 12 10 9 8 8
131 145 146 134 121 117 126 129 132 135 136 135 135 137 139 140 141 144 145 146 150 153 152 152 152 151 149 148 149 148 147 146 144 142 140 141 142 143 143 140 134 128 125 123 120 116 113 120 126 118 102 90 84 80 74 59 52 60 52 32 35 49 52 41 31 18 12 20 31 31 24 19 19 21 20 17 16 16 15 14 12 12 11 9 7 6 7
167 154 145 135 123 123 128 130 133 137 139 139 140 142 144 145 146 147 147 147 150 152 153 154 154 150 148 149 151 149 146 146 146 145 147 147 144 143 144 139 131 127 127 123 119 117 118 127 132 122 106 98 95 84 81 75 57 49 35 11 19 36 42 35 34 24 14 14 20 24 25 25 23 21 20 19 17 17 15 11 11 11 9 7 5 4 4
141 143 141 135 128 128 131 133 135 138 140 140 141 145 147 147 148 150 151 151 151 153 155 155 153 151 151 152 152 149 147 148 148 147 147 145 142 139 137 134 130 129 128 124 123 124 120 123 135 133 116 104 102 90 76 68 51 40 31 7 7 26 29 27 36 35 24 20 18 17 19 22 17 15 19 20 18 16 12 8 9 10 8 5 3 2 3
140 142 140 136 132 131 133 135 137 140 142 142 144 147 149 150 151 153 154 153 154 154 153 152 153 155 154 151 150 148 147 147 148 147 144 142 141 139 136 136 137 134 128 125 125 127 125 121 130 138 131 114 103 93 79 69 55 34 23 14 2 12 16 14 16 32 28 24 20 15 13 13 12 13 16 15 13 13 10 5 6 10 9 4 0 360 2
139 138 135 131 131 133 136 139 140 141 144 147 148 150 151 152 154 154 155 156 157 155 151 151 153 154 152 149 148 148 148 148 147 147 147 146 146 144 143 144 145 140 136 133 129 126 127 122 118 130 137 128 111 95 80 69 60 36 21 21 12 3 7 11 23 47 41 29 20 16 15 15 15 14 12 11 12 13 8 3 5 10 9 2 359 0 360
135 137 134 129 131 139 143 145 145 146 149 151 152 153 154 155 155 157 158 157 153 150 149 150 148 147 147 148 149 150 150 150 149 149 150 151 149 146 147 146 141 136 137 137 134 130 128 123 116 117 124 126 121 112 109 93 73 50 29 31 29 10 4 13 43 62 49 28 10 8 11 15 16 13 11 12 14 14 8 3 4 8 8 2 0 1 359
135 141 143 141 143 148 149 148 149 151 152 153 155 157 157 156 157 157 154 150 147 146 147 148 147 146 148 151 153 153 152 150 150 152 154 155 153 151 153 150 137 129 130 130 131 136 132 121 122 123 115 113 130 154 163 143 86 52 27 21 21 11 10 29 67 68 45 19 3 3 8 12 14 14 14 14 13 11 6 1 2 6 8 4 0 359 359
137 143 146 145 145 147 148 149 150 154 155 157 160 162 160 159 158 154 150 149 148 145 145 147 150 151 153 155 156 156 153 151 153 156 157 158 158 158 158 155 145 138 135 132 135 144 141 119 118 125 122 118 21 155 160 150 101 55 20 350 1 12 24 45 61 51 21 358 357 6 13 16 18 17 13 10 9 7 2 1 4 7 5 360 355 354 359
142 142 142 144 146 147 149 151 154 157 159 160 163 163 161 159 155 150 148 148 147 145 145 150 152 155 157 156 154 153 153 153 157 159 159 160 161 159 158 156 153 153 153 148 145 151 156 150 140 128 127 139 334 70 142 141 108 65 27 354 6 21 27 26 21 13 359 348 355 11 19 21 20 15 8 5 9 8 3 3 5 4 359 354 352 354 360
144 143 143 145 147 149 150 154 158 160 161 162 162 162 161 158 153 150 149 148 148 150 154 154 155 158 159 155 152 154 157 158 160 162 163 162 159 156 157 160 161 163 163 159 155 156 166 178 171 144 142 174 278 71 147 147 118 68 18 344 3 31 23 10 9 15 16 16 24 30 22 15 12 9 8 13 13 8 7 6 3 360 357 355 355 358 1
142 142 144 147 149 151 154 159 163 163 164 166 166 166 165 159 155 155 157 155 154 155 155 153 155 160 158 156 157 160 163 164 165 164 162 160 155 155 163 172 175 175 176 175 168 161 165 189 187 159 160 207 304 34 155 158 134 78 23 354 24 55 31 15 17 25 23 21 23 20 8 4 2 4 14 24 17 9 9 7 360 357 357 355 356 0 3
144 146 150 153 155 156 159 164 167 167 168 170 170 168 164 158 155 157 160 158 154 153 151 150 155 159 158 160 163 164 164 167 167 164 163 163 164 168 173 175 172 173 180 191 186 168 167 190 201 169 167 203 283 1 131 164 158 140 46 53 82 68 36 15 16 20 13 10 16 15 1 353 353 1 18 25 18 9 6 2 357 357 358 356 357 2 6
153 155 158 159 160 162 164 168 169 168 169 170 171 169 164 159 158 160 162 160 158 159 160 163 166 165 164 166 167 166 168 171 169 170 174 175 174 176 174 169 167 172 180 194 191 173 175 196 207 174 179 207 234 349 67 97 104 301 285 109 89 64 34 10 4 5 1 4 11 4 348 345 349 1 16 19 14 8 5 1 357 358 359 358 358 2 6
160 161 162 163 164 165 167 169 170 171 171 169 168 168 166 162 161 163 164 164 166 168 169 171 171 169 170 172 171 170 174 178 177 179 185 185 183 185 182 175 174 180 187 192 182 174 181 199 198 152 184 215 220 213 155 66 12 349 346 117 93 58 33 9 358 356 357 1 2 355 350 352 350 351 3 12 10 8 10 9 0 355 359 1 358 358 4
164 165 166 167 168 168 170 172 173 173 170 166 163 162 161 161 163 166 167 168 171 172 170 169 171 171 172 175 175 173 176 182 185 189 193 195 198 201 196 187 178 181 193 201 187 178 190 205 195 98 135 207 210 220 227 280 349 344 338 141 105 61 34 2 350 351 358 2 359 359 5 8 7 6 11 11 6 4 13 19 13 359 356 358 356 355 1
169 169 168 169 171 171 171 172 173 169 166 166 168 167 165 166 169 172 171 171 174 175 173 173 176 177 176 177 179 179 183 190 195 199 203 210 214 213 206 196 184 185 202 214 205 196 204 213 210 197 262 207 201 209 211 237 330 331 286 164 112 67 37 352 343 354 2 356 354 357 6 15 24 26 19 11 7 7 12 16 15 7 0 357 354 353 356
173 172 168 169 172 170 166 169 175 173 167 165 168 170 168 168 171 176 177 175 176 180 180 178 178 180 181 182 186 192 197 204 209 212 217 222 221 214 209 202 191 192 210 224 213 206 208 212 216 234 251 221 202 196 193 233 325 330 181 153 109 68 35 345 342 356 358 351 358 13 18 16 15 13 8 8 14 19 19 18 17 15 10 5 359 355 355
172 171 167 168 173 174 170 171 175 174 167 162 163 165 167 171 176 181 179 175 177 186 188 184 182 186 187 189 193 198 203 209 214 220 228 229 219 211 208 202 194 195 228 240 212 203 204 208 219 244 231 210 207 203 201 260 322 328 154 144 116 81 6 329 330 349 4 356 359 9 8 2 3 8 7 3 3 6 11 16 17 15 13 10 4 359 359
174 174 172 173 174 172 170 169 169 170 172 173 172 172 175 180 184 184 179 175 180 189 191 188 190 193 193 193 197 200 204 210 218 225 229 226 216 210 208 201 187 177 193 210 199 194 196 204 221 250 220 206 209 219 230 258 299 297 171 163 169 208 298 325 323 322 2 345 343 350 349 346 356 9 10 4 4 3 358 357 360 6 11 9 1 358 1
175 174 174 176 174 170 171 172 172 173 177 179 178 179 183 185 185 182 178 177 182 190 192 191 192 191 191 195 202 206 209 216 223 226 226 222 214 210 209 201 185 171 177 199 203 202 206 215 229 247 223 209 213 228 238 248 268 268 207 187 193 218 272 314 317 305 309 317 327 343 343 336 347 359 356 354 4 12 4 356 357 4 9 2 352 352 359
174 173 174 177 175 173 175 178 177 178 180 180 179 182 187 187 185 183 180 180 185 190 192 190 190 190 193 201 210 213 214 217 215 210 212 217 217 216 214 206 192 184 192 210 222 228 231 231 238 249 238 225 222 224 227 239 267 268 211 191 198 235 264 286 299 299 310 318 321 324 323 324 333 340 336 332 339 346 347 349 354 0 3 360 354 356 1
178 177 179 180 179 178 179 180 181 182 182 181 182 184 186 185 186 190 193 191 189 188 184 182 186 197 208 215 214 208 203 200 197 198 201 209 221 222 216 203 193 192 201 218 230 234 234 233 238 248 245 237 230 222 214 225 269 275 219 204 218 249 249 245 254 279 294 307 315 313 310 313 318 321 322 324 328 329 328 330 338 348 355 357 354 354 356
182 181 181 182 182 182 181 181 183 185 184 183 183 186 187 187 190 195 197 194 191 189 190 193 201 211 217 217 213 205 196 191 195 203 209 211 213 211 201 191 192 203 217 226 229 227 227 232 241 246 240 232 230 226 223 230 256 271 234 215 215 224 226 232 252 273 283 294 307 310 303 299 301 309 319 321 317 315 317 320 325 335 342 339 334 337 342
184 184 183 183 184 183 183 184 187 189 188 185 184 187 191 192 193 194 196 197 198 199 201 205 210 214 216 213 209 209 213 215 215 215 214 212 211 207 197 192 200 218 228 225 220 221 228 241 248 247 240 234 233 235 236 240 252 268 257 237 231 232 238 247 258 270 279 288 296 298 295 295 303 317 327 326 317 309 306 307 309 317 323 322 323 329 334
186 185 184 186 186 186 186 187 189 190 189 187 187 190 193 194 193 194 198 202 205 207 210 212 211 210 210 209 208 210 217 223 227 228 228 226 226 222 211 207 212 222 228 223 220 225 236 244 243 238 238 237 234 237 243 246 251 266 268 244 228 227 242 254 262 271 276 274 272 268 266 275 290 302 314 321 317 306 295 293 300 309 312 311 312 317 324
187 186 186 188 189 189 189 190 192 192 192 193 194 197 197 196 195 195 199 205 211 214 217 217 212 208 209 214 215 213 212 216 225 235 238 234 229 224 221 223 228 232 231 227 226 229 235 237 236 236 240 237 232 233 239 240 245 259 260 232 217 229 257 260 254 254 253 253 259 266 271 277 286 292 298 307 311 306 301 303 307 312 314 313 307 305 312
188 188 189 190 190 190 191 192 194 197 199 201 202 202 200 199 196 196 201 209 215 215 211 208 205 204 207 215 217 216 217 222 228 235 236 230 225 225 227 232 235 233 230 228 227 229 231 235 239 244 247 242 237 237 237 237 247 264 262 232 216 232 260 252 241 244 251 257 264 274 282 287 291 296 302 309 308 305 306 309 311 311 312 311 306 302 305
190 190 191 192 192 192 193 193 196 199 201 201 199 198 199 200 200 201 205 210 212 210 207 205 206 209 216 220 220 222 223 224 227 230 231 229 230 234 236 235 232 229 227 228 230 232 235 239 243 247 249 245 241 240 239 242 252 263 249 221 214 241 264 259 252 254 258 261 268 278 284 287 287 284 284 290 292 292 296 302 307 309 308 304 302 302 304
191 191 193 194 195 195 195 197 199 202 203 202 201 200 199 199 199 200 202 206 209 211 212 213 218 225 228 226 223 223 225 227 230 234 236 239 243 245 240 235 230 225 222 222 225 228 233 238 244 247 246 241 238 238 240 245 254 252 230 212 218 253 265 257 254 260 265 268 273 278 279 280 282 282 281 282 282 284 287 289 290 294 297 294 292 296 301
194 194 196 198 198 198 199 200 202 202 203 204 205 204 204 205 206 206 206 208 211 212 214 218 226 231 228 221 215 216 222 228 232 233 235 239 244 240 227 220 218 217 216 216 218 223 230 239 247 246 238 232 233 238 241 244 253 248 228 217 225 253 262 256 260 272 275 272 270 271 272 277 283 285 282 278 277 281 286 286 284 283 284 283 281 286 294
197 197 198 199 200 200 202 204 205 205 206 207 206 207 210 215 217 215 213 211 211 211 214 220 227 227 221 215 214 217 222 226 227 227 230 237 241 230 209 202 203 206 211 216 222 231 241 250 253 250 243 238 239 243 243 242 244 239 225 219 228 250 262 263 268 273 270 263 264 269 274 282 289 289 279 268 270 276 279 278 276 274 274 276 280 287 292